カタログに戻る

HALCA

MUSES B

運用中科学HEO
NORAD 24720·PAYLOAD·🇯🇵 Japan

打ち上げ Feb 12, 1997 から Uchinoura Space Center

Loading…

次のパス (今後24時間)

TLE

最新Source: Space-Track

元期: Sep 14, 2026, 12:18 UTC

1 24720U 97005A   26257.51273073  .00000296  00000-0  12509-2 0  9992
2 24720  31.2065 216.2538 5980159 314.3689 281.4173  3.84902768413104

AllMySatでHALCAをリアルタイム追跡

Download on the App Store